[Iaude] MPEC M106: 2024 MB1 [a=0.87,e=0.22,i=1.2,H=27.2]

mpec at cfa.harvard.edu mpec at cfa.harvard.edu
Fri Jun 28 12:42:37 EDT 2024


M.P.E.C. 2024-M106                                Issued 2024 June 28, 16:38 UT

     The Minor Planet Electronic Circulars contain information on unusual
         minor planets, routine data on comets and natural satellites,
         and occasional editorial announcements.  They are published
    on behalf of Division F of the International Astronomical Union by the
          Minor Planet Center, Smithsonian Astrophysical Observatory,
                          Cambridge, MA 02138, U.S.A.
			  
             Prepared using the Tamkin Foundation Computer Network

                              MPC at CFA.HARVARD.EDU
            URL https://www.minorplanetcenter.net/    ISSN 1523-6714

                                    2024 MB1                                    


Observations:
     K24M01B* C2024 06 26.32581616 20 03.845-22 12 11.47         21.32wXEM106F52
     K24M01B  C2024 06 26.33370016 19 59.566-22 12 16.33         21.21wXEM106F52
     K24M01B  C2024 06 26.34161016 19 55.282-22 12 21.03         21.02wXEM106F52
     K24M01B  C2024 06 26.34951616 19 51.010-22 12 25.45         21.38wXEM106F52
     K24M01B  C2024 06 26.45922516 18 52.844-22 13 04.86         22.02GVEM106F52
     K24M01B  C2024 06 26.45987816 18 52.570-22 13 05.00         21.68GVEM106F52
     K24M01B KC2024 06 28.23751 16 07 34.02 -22 26 24.9                VEM106291
     K24M01B KC2024 06 28.24161 16 07 32.29 -22 26 26.5                VEM106291
     K24M01B KC2024 06 28.24573 16 07 30.55 -22 26 27.1                VEM106291
     K24M01B  C2024 06 28.33594316 07 02.503-22 26 32.34         22.08GVEM106F51
     K24M01B  C2024 06 28.33676116 07 02.171-22 26 32.62         21.50GVEM106F51

Observer details:
291 LPL/Spacewatch II.  Observer R. A. Mastaler.  1.8-m f/2.7 reflector + CCD.
F51 Pan-STARRS 1, Haleakala.  Observers J. Herman, T. Lowe, P. Minguez, A.
    Schultz, I. Smith.  Measurers K. Chambers, T. de Boer, J. Fairlamb, H.
    Gao, M. Huber, C.-C. Lin, E. Magnier, Y. Ramanjooloo, R. Wainscoat, R.
    Weryk.  1.8-m Ritchey-Chretien + CCD.
F52 Pan-STARRS 2, Haleakala.  Observers J. Herman, T. Lowe, P. Minguez, A.
    Schultz, I. Smith.  Measurers K. Chambers, T. de Boer, J. Fairlamb, H.
    Gao, M. Huber, C.-C. Lin, E. Magnier, Y. Ramanjooloo, R. Wainscoat, R.
    Weryk.  1.8-m Ritchey-Chretien + CCD.

Orbital elements:
2024 MB1                                                 Earth MOID = 0.0050 AU
Epoch 2024 Mar. 31.0 TT = JDT 2460400.5                 MPC                     
M  44.20711              (2000.0)            P               Q                  
n   1.21136609     Peri.   20.33462     -0.40135806     -0.91569446             
a   0.8715369      Node    93.33301     +0.83749420     -0.37590917             
e   0.2248095      Incl.    1.16976     +0.37083039     -0.14211242             
P   0.81           H   27.29          G   0.15           U   8                  
Residuals in seconds of arc
240626 F52  0.1+  0.1+    240626 F52  0.6-  0.2-    240628 291  0.1+  0.2+
240626 F52  0.0   0.1+    240626 F52  0.2+  0.2-    240628 F51  0.2-  0.1-
240626 F52  0.0   0.0     240628 291  0.0   0.2+    240628 F51  0.1+  0.1-
240626 F52  0.1+  0.1-    240628 291  0.1+  0.3-

Ephemeris:
2024 MB1                 a,e,i = 0.87, 0.22, 1                   q = 0.6756
Date    TT    R. A. (2000) Decl.     Delta      r    Elong.  Phase     V
2024 05 29    00 50 55.0 +17 22 58   0.04221 0.9870    50.2   127.9    25.9
...
2024 06 13    20 50 20.1 -04 20 02   0.01660 1.0257   127.2    52.0    20.4
...
2024 06 21    17 18 33.9 -20 20 52   0.02540 1.0412   170.1     9.6    20.0
...
2024 06 27    16 15 16.9 -22 15 14   0.03881 1.0504   150.4    28.6    21.6
2024 06 28    16 08 58.9 -22 22 10   0.04125 1.0518   148.0    30.8    21.8
2024 06 29    16 03 27.3 -22 27 42   0.04371 1.0531   145.8    32.9    22.0
...
2024 07 05    15 41 42.0 -22 47 02   0.05910 1.0595   135.2    42.6    22.9
...
2024 07 13    15 30 06.8 -23 06 03   0.08043 1.0647   125.0    51.4    23.9
...
2024 07 28    15 30 30.3 -23 53 01   0.1202  1.0644   111.0    63.0    25.1

A. U. Tomatic                (C) Copyright 2024 MPC           M.P.E.C. 2024-M106





More information about the Iaude mailing list